STARLINK-34457 (64368 NORAD) Tracking and Keplerian Element Data

This shows tracking and keplerian element data for the satellite.

Feedback or suggestion? Click here.




ElementValue
Catalog64368
NameSTARLINK-34457
Epoch Orbit2875
Epoch Day354.0746559
Epoch Year2025
RAAN235.2964
Inclination69.9996
Eccentricity0.0002693
Argument of Perigee269.4701
Mean Anonmoly90.6149
Mean Motion14.98330736
Decay Rate7.08E-06
L11 64368U 25126AA 25354.07465590 .00000708 00000+0 67141-4 0 9995
L22 64368 69.9996 235.2964 0002693 269.4701 90.6149 14.98330736 28752



Live tracking and technical data element details for STARLINK-34457 (NORAD 64368). STARLINK-34457 can be tracked NOW for your location showing map with azimuth and elevation plus other details from your city location.







IsCatalogInMostPopularTable: catalog: 64368, numindb: 3
Update: records affected: 1



GetName: 64368 STARLINK-34457

Hit Count: updated at: Sun, 08 Feb 2026 08:30:49 GMT